This is the latest recevied weather packets stored in our database for station/object SP1BMW-13. If no packets are shown the sender has not sent any weather packets the latest 10 day(s).
| Time | Temp. | Humidity | Pressure | Rain* | Wind** | Luminosity | Snow |
|---|---|---|---|---|---|---|---|
| 1777541820 | 16.11° C | 39% | 1030.1 hPa | 0 mm | 2.24 m/s, 283° | 697 W/m² | - |
| 1777541761 | 16.11° C | 39% | 1030.5 hPa | 0 mm | 3.13 m/s, 320° | 732 W/m² | - |
| 1777541700 | 16.11° C | 39% | 1030.2 hPa | 0 mm | 1.79 m/s, 289° | 700 W/m² | - |
| 1777541641 | 16.11° C | 39% | 1030.4 hPa | 0 mm | 2.24 m/s, 293° | 626 W/m² | - |
| 1777541581 | 16.11° C | 40% | 1030.3 hPa | 0 mm | 2.24 m/s, 325° | 576 W/m² | - |
| 1777541522 | 16.11° C | 40% | 1030.4 hPa | 0 mm | 0.89 m/s, 309° | 534 W/m² | - |
| 1777541461 | 16.11° C | 40% | 1030.3 hPa | 0 mm | 0.45 m/s, 62° | 541 W/m² | - |
| 1777541401 | 16.11° C | 39% | 1030.3 hPa | 0 mm | 1.34 m/s, 294° | 425 W/m² | - |
| 1777541341 | 16.11° C | 40% | 1030.5 hPa | 0 mm | 1.34 m/s, 1° | 405 W/m² | - |
| 1777541281 | 15.56° C | 39% | 1030.2 hPa | 0 mm | 2.68 m/s, 259° | 460 W/m² | - |
| 1777541222 | 15.56° C | 40% | 1030.4 hPa | 0 mm | 0.89 m/s, 23° | 405 W/m² | - |
| 1777541161 | 15.56° C | 41% | 1030.2 hPa | 0 mm | 1.34 m/s, 283° | 352 W/m² | - |
| 1777541101 | 15.56° C | 40% | 1030.4 hPa | 0 mm | 0.89 m/s, 329° | 330 W/m² | - |
| 1777541041 | 15.56° C | 41% | 1030.4 hPa | 0 mm | 0.89 m/s, 2° | 341 W/m² | - |
| 1777540981 | 15.56° C | 39% | 1030.4 hPa | 0 mm | 1.34 m/s, 18° | 342 W/m² | - |
| 1777540921 | 15.56° C | 41% | 1030.4 hPa | 0 mm | 1.34 m/s, 265° | 342 W/m² | - |
| 1777540861 | 15.56° C | 41% | 1030.3 hPa | 0 mm | 2.68 m/s, 5° | 342 W/m² | - |
| 1777540801 | 15.56° C | 40% | 1030.2 hPa | 0 mm | 1.79 m/s, 281° | 366 W/m² | - |
| 1777540742 | 15.56° C | 40% | 1030.6 hPa | 0 mm | 2.24 m/s, 331° | 389 W/m² | - |
| 1777540681 | 15.56° C | 41% | 1030.5 hPa | 0 mm | 1.34 m/s, 10° | 402 W/m² | - |
| 1777540621 | 15.56° C | 41% | 1030.6 hPa | 0 mm | 1.34 m/s, 329° | 443 W/m² | - |
| 1777540561 | 15.56° C | 41% | 1030.3 hPa | 0 mm | 2.24 m/s, 298° | 429 W/m² | - |
| 1777540501 | 15.56° C | 42% | 1030.6 hPa | 0 mm | 1.79 m/s, 300° | 414 W/m² | - |
| 1777540441 | 15.56° C | 41% | 1030.4 hPa | 0 mm | 4.02 m/s, 222° | 374 W/m² | - |
| 1777540381 | 15.56° C | 40% | 1030.5 hPa | 0 mm | 2.68 m/s, 319° | 352 W/m² | - |
* Rain latest hour (hover to see other rain measurements)
** Current wind speed in m/s (hover to see current wind gust speed)